Weather History for KAZO - January, 2014

Change the Weather History Date:

Monday, January 13, 2014

  Actual Average Record
Temperature  
Mean Temperature 40 °F 24 °F  
Max Temperature 44 °F 31 °F 60 °F (1950)
Min Temperature 35 °F 18 °F -5 °F (1963)
Degree Days  
Heating Degree Days 25 41  
Month to date heating degree days 447 525  
Since 1 July heating degree days 2954 2976  
Cooling Degree Days 0 0  
Month to date cooling degree days 0 0  
Year to date cooling degree days 0 0  
Moisture  
Dew Point 31 °F    
Average Humidity 71    
Maximum Humidity 82    
Minimum Humidity 60    
Precipitation  
Precipitation 0.00 in 0.05 in 1.69 in (2005)
Month to date precipitation 0.70 0.76  
Year to date precipitation 0.70 0.76  
Sea Level Pressure  
Sea Level Pressure 29.64 in    
Wind  
Wind Speed 11 mph (SW)    
Max Wind Speed 22 mph    
Max Gust Speed 28 mph    
Visibility 10 miles    
Events      
T = Trace of Precipitation, MM = Missing Value Source: NWS Daily Summary

Daily Weather History Graph

Daily Weather History Graph

Search for Another Location

Airport or City:

Trip Planner

Search our weather history database for the weather conditions in past years. The results will help you decide how hot, cold, wet, or windy it might be!

Date:

Astronomy

Jan. 13, 2014 Rise Set
Actual Time 8:09 AM EST 5:33 PM EST
Civil Twilight 7:38 AM EST 6:04 PM EST
Nautical Twilight 7:03 AM EST 6:38 PM EST
Astronomical Twilight 6:29 AM EST 7:12 PM EST
Moon 3:47 PM EST (1/13) 5:57 AM EST (1/13)
Length of Visible Light 10h 25m
Length of Day
9h 23m
Waxing Gibbous, 95% of the Moon is Illuminated
Jan 13
Waxing Gibbous
Jan 15
Full
Jan 24
Last Quarter
Jan 30
New
Feb 6
First Quarter

Hourly Weather History & Observations

Time (EST) Temp. Windchill Dew Point Humidity Pressure Visibility Wind Dir Wind Speed Gust Speed Precip Events Conditions
12:53 AM 41.0 °F 32.2 °F 28.9 °F 62% 29.70 in 10.0 mi SSW 18.4 mph 27.6 mph N/A   Clear
1:53 AM 41.0 °F 31.9 °F 28.9 °F 62% 29.68 in 10.0 mi SSW 19.6 mph 25.3 mph N/A   Clear
2:53 AM 41.0 °F 32.8 °F 30.0 °F 65% 29.67 in 10.0 mi SSW 16.1 mph - N/A   Clear
3:53 AM 41.0 °F 32.5 °F 30.0 °F 65% 29.65 in 10.0 mi SSW 17.3 mph - N/A   Clear
4:53 AM 41.0 °F 33.5 °F 30.0 °F 65% 29.64 in 10.0 mi SSW 13.8 mph - N/A   Clear
5:53 AM 39.9 °F 32.5 °F 30.0 °F 68% 29.63 in 10.0 mi SSW 12.7 mph - N/A   Clear
6:53 AM 37.9 °F 30.0 °F 30.0 °F 73% 29.62 in 10.0 mi South 12.7 mph - N/A   Clear
7:53 AM 37.0 °F 29.8 °F 30.0 °F 76% 29.61 in 10.0 mi South 10.4 mph - N/A   Clear
8:53 AM 37.0 °F 29.3 °F 30.0 °F 76% 29.62 in 10.0 mi South 11.5 mph - N/A   Clear
9:53 AM 37.9 °F 32.1 °F 30.9 °F 76% 29.60 in 10.0 mi South 8.1 mph - N/A   Mostly Cloudy
10:53 AM 39.9 °F 32.9 °F 32.0 °F 73% 29.60 in 10.0 mi SSW 11.5 mph - N/A   Overcast
11:53 AM 42.1 °F 34.9 °F 32.0 °F 67% 29.58 in 10.0 mi SW 13.8 mph - N/A   Overcast
12:53 PM 42.1 °F 35.7 °F 32.0 °F 67% 29.57 in 10.0 mi SW 11.5 mph - N/A   Overcast
1:53 PM 43.0 °F 36.8 °F 33.1 °F 68% 29.55 in 10.0 mi WSW 11.5 mph 19.6 mph N/A   Mostly Cloudy
2:53 PM 44.1 °F 38.1 °F 33.1 °F 65% 29.56 in 10.0 mi WSW 11.5 mph - N/A   Scattered Clouds
3:53 PM 43.0 °F 37.2 °F 33.1 °F 68% 29.58 in 10.0 mi SW 10.4 mph - N/A   Mostly Cloudy
4:53 PM 42.1 °F 37.1 °F 33.1 °F 70% 29.60 in 10.0 mi SW 8.1 mph - N/A   Clear
5:53 PM 39.9 °F 35.1 °F 33.1 °F 77% 29.62 in 10.0 mi SW 6.9 mph - N/A   Clear
6:53 PM 39.9 °F 33.4 °F 32.0 °F 73% 29.65 in 10.0 mi West 10.4 mph - N/A   Clear
7:53 PM 37.9 °F 32.7 °F 30.0 °F 73% 29.68 in 10.0 mi West 6.9 mph - N/A   Clear
8:53 PM 37.0 °F 31.0 °F 30.9 °F 79% 29.70 in 10.0 mi West 8.1 mph - N/A   Mostly Cloudy
9:03 PM 35.6 °F 29.9 °F 30.2 °F 81% 29.67 in 10.0 mi West 6.9 mph - N/A   Scattered Clouds
9:15 PM 35.6 °F 29.9 °F 30.2 °F 81% 29.68 in 10.0 mi West 6.9 mph - N/A   Mostly Cloudy
9:53 PM 36.0 °F 32.1 °F 30.0 °F 79% 29.71 in 10.0 mi West 4.6 mph - N/A   Mostly Cloudy
10:53 PM 36.0 °F 30.3 °F 30.9 °F 82% 29.72 in 10.0 mi WNW 6.9 mph - N/A   Overcast
11:53 PM 35.1 °F 28.6 °F 30.0 °F 82% 29.73 in 10.0 mi WNW 8.1 mph - N/A   Overcast